This is the latest recevied weather packets stored in our database for station/object AE0NK. If no packets are shown the sender has not sent any weather packets the latest 10 day(s).
| Time | Temp. | Humidity | Pressure | Rain* | Wind** | Luminosity | Snow |
|---|---|---|---|---|---|---|---|
| 1777683798 | 11.11° C | 54% | 1016.9 hPa | 0 mm | - | 0 W/m² | - |
| 1777683494 | 11.11° C | 52% | 1017 hPa | 0 mm | - | 5 W/m² | - |
| 1777683192 | 11.11° C | 52% | 1017 hPa | 0 mm | - | 7 W/m² | - |
| 1777682892 | 11.67° C | 52% | 1016.9 hPa | 0 mm | - | 9 W/m² | - |
| 1777682610 | 11.67° C | 53% | 1016.9 hPa | 0 mm | - | 11 W/m² | - |
| 1777682309 | 11.67° C | 53% | 1016.9 hPa | 0 mm | - | 16 W/m² | - |
| 1777682007 | 11.67° C | 51% | 1016.8 hPa | 0 mm | - | 21 W/m² | - |
| 1777681705 | 11.67° C | 52% | 1016.7 hPa | 0 mm | - | 37 W/m² | - |
| 1777681404 | 11.67° C | 52% | 1016.8 hPa | 0 mm | - | 53 W/m² | - |
| 1777681102 | 11.67° C | 50% | 1016.7 hPa | 0 mm | - | 67 W/m² | - |
| 1777680801 | 11.67° C | 52% | 1016.7 hPa | 0 mm | - | 40 W/m² | - |
| 1777680500 | 11.67° C | 49% | 1016.7 hPa | 0 mm | - | 70 W/m² | - |
| 1777680192 | 11.67° C | 50% | 1016.6 hPa | 0 mm | - | 39 W/m² | - |
| 1777679908 | 11.67° C | 48% | 1016.6 hPa | 0 mm | - | 40 W/m² | - |
| 1777679606 | 12.22° C | 48% | 1016.7 hPa | 0 mm | - | 42 W/m² | - |
| 1777679302 | 12.22° C | 49% | 1016.6 hPa | 0 mm | - | 46 W/m² | - |
| 1777678999 | 12.22° C | 48% | 1016.7 hPa | 0 mm | - | 47 W/m² | - |
| 1777678698 | 12.22° C | 46% | 1016.7 hPa | 0 mm | - | 49 W/m² | - |
| 1777678396 | 12.22° C | 45% | 1016.7 hPa | 0 mm | - | 56 W/m² | - |
| 1777678095 | 12.22° C | 50% | 1016.7 hPa | 0 mm | - | 62 W/m² | - |
| 1777677793 | 12.22° C | 49% | 1016.7 hPa | 0 mm | - | 44 W/m² | - |
| 1777677493 | 12.22° C | 46% | 1016.7 hPa | 0 mm | - | 62 W/m² | - |
| 1777677210 | 12.22° C | 47% | 1016.7 hPa | 0 mm | - | 69 W/m² | - |
| 1777676908 | 12.22° C | 47% | 1016.6 hPa | 0 mm | - | 83 W/m² | - |
| 1777676605 | 12.22° C | 45% | 1016.7 hPa | 0 mm | - | 204 W/m² | - |
* Rain latest hour (hover to see other rain measurements)
** Current wind speed in m/s (hover to see current wind gust speed)